User: anonymous   Login
Location: Ceske Budejovice
(48.9830°N, 14.4670°E)
Time: 05:13:48
(UTC+02:00)
Language:

LO-87 - Orbit

View from above orbital plane
View from above orbital plane
View from above satellite
View from above satellite

Ground track
Ground track

The orbit data is extracted from the following two-line orbital elements,

1 41557U 16033B   19202.80422032  .00000691  00000-0  28578-4 0  9990
2 41557  97.4181 290.1127 0013981 174.0369 186.1039 15.27258422175142
Epoch (UTC): 21 July 2019 19:18:04
Eccentricity: 0.0013981
inclination: 97.4181°
perigee height: 474 km
apogee height: 493 km
right ascension of ascending node: 290.1127°
argument of perigee: 174.0369°
revolutions per day: 15.27258422
mean anomaly at epoch: 186.1039°
orbit number at epoch: 17514

The dashed part of the orbit path shows where the satellite is in the earth's shadow,  

DLR